Flag for Germany Weather past 2 weeks in Ravensburg, Baden-Württemberg, Germany

Now
61 °F

Light rain. Cloudy.


Feels Like: 61 °F
Forecast: 58 / 64 °F
Wind: 6 mph from West

Location: Friedrichshafen Airport

Current Time: Jul 29, 2014 at 11:29:32 AM

Latest Report: Jul 29, 2014 at 10:50 AM


Visibility: N/A

Pressure: 29.83 "Hg

Humidity: 83%

Dew point: 55 °F

Location of RavensburgLocation

Historic Weather in Ravensburg — Graph

°F

Ravensburg temperature yesterday

Maximum temperature yesterday: 81 °F (at 4:50 PM)
Minimum temperature yesterday: 57 °F (at 5:20 AM)
Average temperature yesterday: 67 °F

Past Weeks' High & Low Weather Summary

 TemperatureHumidityPressure
High91 °F (Jul 19, 4:50 PM)94% (Jul 16, 5:20 AM)30.21 "Hg (Jul 16, 5:20 AM)
Low52 °F (Jul 25, 5:50 AM)24% (Jul 19, 4:50 PM)29.77 "Hg (Jul 28, 4:50 PM)
Average67 °F68%30.00 "Hg
* Reported Jul 14 10:20 AM — Jul 29 10:20 AM, Ravensburg, Weather by CustomWeather, © 2014

Note: Actual official high and low records may vary slightly from our data, if they occured in-between our weather recording intervals... More about our weather records

Advertising

Ravensburg weather history for previous 24 hours

 ConditionsComfort  
Time TempWeatherWind HumidityBarometerVisibility
10:20 AM
Jul 29
61 °FMore clouds than sun.3 mph83%29.83 "HgN/A
9:50 AM61 °FCloudy.3 mph83%29.83 "HgN/A
9:20 AM61 °FLow clouds.5 mph83%29.83 "HgN/A
8:50 AM59 °FLight rain. Mostly cloudy.5 mph88%29.83 "HgN/A
8:20 AM59 °FLight rain. Low clouds.7 mph88%29.83 "HgN/A
7:50 AM59 °FLight rain. Low clouds.7 mph88%29.83 "HgN/A
7:20 AM59 °FSprinkles. Low clouds.6 mph88%29.83 "HgN/A
6:50 AM59 °FSprinkles. Mostly cloudy.2 mph88%29.83 "HgN/A
6:20 AM59 °FDrizzle. Low clouds.3 mph88%29.83 "HgN/A
5:50 AM59 °FLight rain. Mostly cloudy.2 mph88%29.83 "HgN/A
5:20 AM59 °FLight rain. Mostly cloudy.5 mph88%29.83 "HgN/A
4:50 AM59 °FLight rain. Overcast.3 mph82%29.83 "HgN/A
4:20 AM61 °FOvercast.3 mph83%29.83 "HgN/A
3:50 AM59 °FMostly cloudy.No wind88%29.83 "HgN/A
3:20 AM59 °FOvercast.5 mph88%29.86 "HgN/A
2:50 AM59 °FMostly cloudy.5 mph88%29.86 "HgN/A
2:20 AM59 °FSprinkles. Mostly cloudy.5 mph88%29.86 "HgN/A
1:50 AM59 °FSprinkles. Overcast.7 mph88%29.86 "HgN/A
1:20 AM61 °FSprinkles. Mostly cloudy.6 mph83%29.86 "HgN/A
12:50 AM61 °FSprinkles. Overcast.8 mph83%29.86 "HgN/A
12:20 AM61 °FMostly cloudy.12 mph83%29.86 "HgN/A
11:50 PM
Jul 28
61 °FSprinkles. Low clouds.15 mph83%29.86 "HgN/A
11:20 PM63 °FSprinkles. Mostly cloudy.13 mph83%29.86 "HgN/A
10:20 PM63 °FMostly cloudy.17 mph83%29.86 "Hg5 mi
9:50 PM63 °FMore clouds than sun.14 mph83%29.86 "Hg5 mi
9:20 PM63 °FLight rain. Mostly cloudy.16 mph83%29.83 "HgN/A
8:50 PM64 °FRain. Cloudy.18 mph78%29.83 "HgN/A
8:20 PM68 °FLight rain. Broken clouds.15 mph73%29.83 "HgN/A
7:50 PM72 °FPartly sunny.5 mph61%29.77 "HgN/A
7:20 PM72 °FPartly sunny.7 mph65%29.77 "HgN/A
6:50 PM73 °FBroken clouds.7 mph53%29.77 "HgN/A
6:20 PM75 °FPartly sunny.13 mph54%29.77 "HgN/A
5:50 PM79 °FBroken clouds.5 mph48%29.77 "HgN/A
5:20 PM81 °FPassing clouds.5 mph48%29.77 "HgN/A
4:50 PM81 °FScattered clouds.3 mph42%29.77 "HgN/A
4:20 PM79 °FPassing clouds.8 mph48%29.80 "HgN/A
3:50 PM79 °FPassing clouds.6 mph51%29.80 "HgN/A
3:20 PM79 °FPassing clouds.3 mph48%29.80 "HgN/A
2:50 PM79 °FPassing clouds.5 mph54%29.83 "HgN/A
2:20 PM79 °FPassing clouds.5 mph54%29.83 "HgN/A
1:50 PM77 °FPassing clouds.6 mph57%29.86 "HgN/A
1:20 PM73 °FPassing clouds.8 mph65%29.86 "HgN/A
12:50 PM75 °FPassing clouds.3 mph57%29.86 "HgN/A
12:20 PM75 °FPassing clouds.3 mph57%29.89 "HgN/A
11:50 AM73 °FPassing clouds.3 mph61%29.89 "HgN/A
11:20 AM72 °FScattered clouds.5 mph69%29.89 "HgN/A
Weather by CustomWeather, © 2014

See weather overviewHow to use our weather pages